ABY584 HECA-OMSJ

Flight info

Callsign ABY584
Flight time 3h 3m
Altitude 37000
Route CVO L677 MENLI N697 SISIK W976 TAKSU L550 KARIK B411 DEESA Y415 LOTOK P559 TOMSO/N0412F310 P559 KIVUS L305 EMOTA R784 GONVI
Aircraft A320/M-SDE3FGHIRWY/LB1

Departure

Time 2026-04-23 14:01
Airport Cairo International Airport (HECA)

Arrival

Time 2026-04-23 17:05
Airport Sharjah International Airport (OMSJ)
Time Latitude Longitude Altitude Speed Heading
2026-04-23 13:43 30.10821 31.40005 356 ft 0 kts 256°
2026-04-23 13:53 30.10827 31.40032 353 ft 4 kts 256°
2026-04-23 13:54 30.10834 31.40062 361 ft 4 kts 256°
2026-04-23 13:54 30.10841 31.40092 352 ft 4 kts 246°
2026-04-23 13:54 30.10855 31.40116 359 ft 4 kts 211°
2026-04-23 13:54 30.10876 31.40124 359 ft 1 kts 181°
2026-04-23 13:55 30.10880 31.40124 357 ft 2 kts 181°
2026-04-23 13:56 30.10871 31.40124 352 ft 9 kts 181°
2026-04-23 13:56 30.10798 31.40119 359 ft 9 kts 197°
2026-04-23 13:56 30.10738 31.40050 358 ft 18 kts 230°
2026-04-23 13:57 30.10656 31.39943 357 ft 18 kts 229°
2026-04-23 13:57 30.10581 31.39828 362 ft 19 kts 246°
2026-04-23 13:57 30.10490 31.39765 358 ft 15 kts 171°
2026-04-23 13:57 30.10403 31.39788 365 ft 10 kts 168°
2026-04-23 13:58 30.10346 31.39771 370 ft 8 kts 220°
2026-04-23 13:58 30.10289 31.39697 369 ft 14 kts 229°
2026-04-23 13:58 30.10211 31.39596 369 ft 17 kts 226°
2026-04-23 13:58 30.10117 31.39602 372 ft 13 kts 143°
2026-04-23 13:59 30.10060 31.39655 377 ft 7 kts 139°
2026-04-23 13:59 30.10021 31.39701 382 ft 8 kts 129°
2026-04-23 13:59 30.10007 31.39734 384 ft 1 kts 106°
2026-04-23 13:59 30.10004 31.39760 385 ft 11 kts 96°
2026-04-23 14:00 30.10005 31.39820 387 ft 10 kts 84°
2026-04-23 14:00 30.10037 31.39912 387 ft 12 kts 52°
2026-04-23 14:00 30.10243 31.40182 388 ft 80 kts 49°
2026-04-23 14:00 30.10746 31.40854 385 ft 137 kts 49°
2026-04-23 14:01 30.11476 31.41812 432 ft 176 kts 48°
2026-04-23 14:01 30.12243 31.42864 1163 ft 172 kts 47°
2026-04-23 14:01 30.13026 31.43913 1825 ft 176 kts 47°
2026-04-23 14:01 30.13707 31.45170 2110 ft 200 kts 77°
2026-04-23 14:02 30.13490 31.46833 2340 ft 228 kts 119°
2026-04-23 14:02 30.12435 31.48328 2683 ft 253 kts 135°
2026-04-23 14:02 30.11067 31.49740 3197 ft 271 kts 139°
2026-04-23 14:02 30.09613 31.51156 4007 ft 276 kts 139°
2026-04-23 14:03 30.08140 31.52634 4889 ft 279 kts 138°
2026-04-23 14:03 30.06703 31.54147 5781 ft 282 kts 136°
2026-04-23 14:03 30.05274 31.55716 6667 ft 284 kts 135°
2026-04-23 14:03 30.03851 31.57324 7498 ft 287 kts 135°
2026-04-23 14:04 30.02430 31.58963 8333 ft 291 kts 134°
2026-04-23 14:04 30.01001 31.60626 9137 ft 294 kts 135°
2026-04-23 14:04 29.99574 31.62290 9898 ft 297 kts 135°
2026-04-23 14:04 29.98079 31.64027 10395 ft 313 kts 135°
2026-04-23 14:05 29.96487 31.65867 10657 ft 335 kts 136°
2026-04-23 14:05 29.94816 31.67794 11271 ft 343 kts 136°
2026-04-23 14:05 29.93127 31.69744 12000 ft 347 kts 137°
2026-04-23 14:05 29.91407 31.71731 12718 ft 351 kts 137°
2026-04-23 14:06 29.89676 31.73734 13410 ft 355 kts 137°
2026-04-23 14:06 29.87920 31.75762 14061 ft 359 kts 137°
2026-04-23 14:06 29.86139 31.77817 14714 ft 363 kts 137°
2026-04-23 14:06 29.84341 31.79887 15336 ft 367 kts 137°
2026-04-23 14:07 29.82545 31.81954 15939 ft 371 kts 137°
2026-04-23 14:07 29.79103 31.86482 17125 ft 382 kts 123°
2026-04-23 14:07 29.77901 31.89233 17708 ft 388 kts 112°
2026-04-23 14:08 29.77125 31.92230 18247 ft 393 kts 105°
2026-04-23 14:08 29.76455 31.95287 18787 ft 396 kts 105°
2026-04-23 14:08 29.75776 31.98371 19308 ft 400 kts 105°
2026-04-23 14:08 29.75084 32.01495 19820 ft 404 kts 105°
2026-04-23 14:09 29.74391 32.04609 20314 ft 408 kts 105°
2026-04-23 14:09 29.73680 32.07793 20790 ft 412 kts 106°
2026-04-23 14:09 29.72961 32.11010 21267 ft 416 kts 106°
2026-04-23 14:09 29.72237 32.14252 21725 ft 419 kts 106°
2026-04-23 14:10 29.71509 32.17508 22169 ft 423 kts 106°
2026-04-23 14:10 29.70769 32.20804 22603 ft 427 kts 106°
2026-04-23 14:10 29.70022 32.24127 23034 ft 431 kts 106°
2026-04-23 14:10 29.69268 32.27481 23434 ft 434 kts 106°
2026-04-23 14:11 29.68508 32.30858 23833 ft 438 kts 106°
2026-04-23 14:11 29.67746 32.34255 24221 ft 441 kts 106°
2026-04-23 14:11 29.66976 32.37691 24623 ft 444 kts 106°
2026-04-23 14:11 29.66199 32.41151 24996 ft 447 kts 106°
2026-04-23 14:12 29.65426 32.44573 25366 ft 449 kts 106°
2026-04-23 14:12 29.64631 32.48078 25755 ft 452 kts 107°
2026-04-23 14:12 29.63836 32.51586 26115 ft 455 kts 107°
2026-04-23 14:12 29.63037 32.55105 26470 ft 457 kts 107°
2026-04-23 14:13 29.62227 32.58664 26811 ft 460 kts 107°
2026-04-23 14:13 29.61412 32.62236 27141 ft 463 kts 107°
2026-04-23 14:13 29.60600 32.65828 27457 ft 466 kts 105°
2026-04-23 14:13 29.60090 32.69518 27794 ft 470 kts 95°
2026-04-23 14:14 29.60039 32.73290 28108 ft 474 kts 90°
2026-04-23 14:14 29.60091 32.77093 28415 ft 476 kts 90°
2026-04-23 14:14 29.60132 32.80863 28734 ft 478 kts 90°
2026-04-23 14:14 29.60167 32.84712 29025 ft 481 kts 90°
2026-04-23 14:15 29.60203 32.88570 29331 ft 484 kts 90°
2026-04-23 14:15 29.60238 32.92448 29602 ft 486 kts 90°
2026-04-23 14:15 29.60271 32.96345 29892 ft 488 kts 90°
2026-04-23 14:15 29.60305 33.00258 30157 ft 491 kts 91°
2026-04-23 14:16 29.60337 33.04189 30416 ft 493 kts 91°
2026-04-23 14:16 29.60369 33.08143 30659 ft 495 kts 91°
2026-04-23 14:16 29.60400 33.12071 30876 ft 498 kts 91°
2026-04-23 14:16 29.60429 33.16056 31103 ft 500 kts 91°
2026-04-23 14:17 29.60457 33.20054 31431 ft 500 kts 91°
2026-04-23 14:17 29.60485 33.24059 31743 ft 500 kts 91°
2026-04-23 14:17 29.60512 33.28072 32043 ft 501 kts 91°
2026-04-23 14:17 29.60536 33.32090 32349 ft 501 kts 91°
2026-04-23 14:18 29.60557 33.36047 32658 ft 501 kts 91°
2026-04-23 14:18 29.60577 33.40058 32959 ft 501 kts 91°
2026-04-23 14:18 29.60596 33.44057 33255 ft 501 kts 91°
2026-04-23 14:18 29.60616 33.48055 33541 ft 501 kts 92°
2026-04-23 14:19 29.60635 33.52057 33836 ft 501 kts 92°
2026-04-23 14:19 29.60656 33.56061 34130 ft 501 kts 92°
2026-04-23 14:19 29.60677 33.60078 34409 ft 501 kts 92°
2026-04-23 14:19 29.60690 33.62748 34591 ft 501 kts 92°
2026-04-23 14:20 29.60705 33.66752 34841 ft 501 kts 92°
2026-04-23 14:20 29.60715 33.70756 35069 ft 502 kts 92°
2026-04-23 14:20 29.60724 33.74775 35339 ft 501 kts 92°
2026-04-23 14:20 29.60729 33.78780 35583 ft 501 kts 92°
2026-04-23 14:21 29.60736 33.82787 35798 ft 501 kts 92°
2026-04-23 14:21 29.60741 33.86794 36003 ft 502 kts 92°
2026-04-23 14:21 29.60742 33.90767 36200 ft 502 kts 92°
2026-04-23 14:21 29.60740 33.94780 36413 ft 502 kts 93°
2026-04-23 14:22 29.60730 33.98791 36595 ft 503 kts 93°
2026-04-23 14:22 29.60717 34.02812 36784 ft 503 kts 93°
2026-04-23 14:22 29.60693 34.10827 36861 ft 499 kts 93°
2026-04-23 14:23 29.60675 34.18754 36850 ft 495 kts 93°
2026-04-23 14:23 29.60655 34.26665 36850 ft 495 kts 93°
2026-04-23 14:24 29.60668 34.34566 36850 ft 495 kts 92°
2026-04-23 14:24 29.60691 34.42496 36849 ft 495 kts 93°
2026-04-23 14:25 29.60670 34.50363 36840 ft 494 kts 97°
2026-04-23 14:25 29.60227 34.54241 36844 ft 487 kts 108°
2026-04-23 14:25 29.59252 34.57953 36834 ft 480 kts 118°
2026-04-23 14:26 29.55970 34.64441 36818 ft 462 kts 137°
2026-04-23 14:26 29.51395 34.69405 36816 ft 448 kts 149°
2026-04-23 14:27 29.46814 34.74354 36812 ft 464 kts 135°
2026-04-23 14:27 29.45059 34.77463 36813 ft 475 kts 124°
2026-04-23 14:27 29.43782 34.80996 36818 ft 485 kts 112°
2026-04-23 14:28 29.42559 34.88688 36815 ft 492 kts 103°
2026-04-23 14:28 29.41926 34.96509 36810 ft 499 kts 90°
2026-04-23 14:29 29.43100 35.04394 36810 ft 504 kts 75°
2026-04-23 14:29 29.44948 35.12179 36817 ft 505 kts 76°
2026-04-23 14:30 29.46761 35.19926 36817 ft 505 kts 76°
2026-04-23 14:30 29.48572 35.27739 36816 ft 506 kts 76°
2026-04-23 14:31 29.50386 35.35555 36832 ft 506 kts 76°
2026-04-23 14:31 29.52197 35.43368 36824 ft 506 kts 76°
2026-04-23 14:32 29.54005 35.51180 36830 ft 506 kts 76°
2026-04-23 14:32 29.55856 35.58967 36837 ft 506 kts 75°
2026-04-23 14:33 29.57730 35.66780 36832 ft 505 kts 76°
2026-04-23 14:33 29.59567 35.74539 36839 ft 505 kts 76°
2026-04-23 14:34 29.61372 35.82348 36843 ft 504 kts 77°
2026-04-23 14:34 29.62797 35.90195 36842 ft 503 kts 82°
2026-04-23 14:35 29.63963 35.98179 36840 ft 503 kts 82°
2026-04-23 14:35 29.65140 36.06062 36832 ft 503 kts 81°
2026-04-23 14:36 29.66423 36.13971 36823 ft 503 kts 81°
2026-04-23 14:36 29.67737 36.21880 36820 ft 503 kts 81°
2026-04-23 14:37 29.69017 36.29767 36829 ft 503 kts 81°
2026-04-23 14:37 29.70288 36.37698 36824 ft 504 kts 81°
2026-04-23 14:38 29.71564 36.45633 36831 ft 504 kts 81°
2026-04-23 14:38 29.72843 36.53517 36833 ft 504 kts 81°
2026-04-23 14:39 29.74135 36.61457 36828 ft 505 kts 81°
2026-04-23 14:39 29.74674 36.69451 36839 ft 498 kts 98°
2026-04-23 14:40 29.73489 36.77247 36847 ft 492 kts 109°
2026-04-23 14:40 29.71955 36.84950 36842 ft 494 kts 109°
2026-04-23 14:41 29.70429 36.92624 36835 ft 494 kts 109°
2026-04-23 14:41 29.68890 37.00351 36829 ft 495 kts 109°
2026-04-23 14:42 29.67334 37.08081 36829 ft 496 kts 109°
2026-04-23 14:42 29.65780 37.15762 36828 ft 496 kts 109°
2026-04-23 14:43 29.64228 37.23520 36829 ft 497 kts 109°
2026-04-23 14:43 29.62656 37.31301 36833 ft 497 kts 109°
2026-04-23 14:44 29.61080 37.38996 36849 ft 498 kts 109°
2026-04-23 14:44 29.59487 37.46762 36856 ft 498 kts 109°
2026-04-23 14:45 29.57897 37.54529 36860 ft 498 kts 109°
2026-04-23 14:45 29.56317 37.62241 36862 ft 499 kts 109°
2026-04-23 14:46 29.54718 37.70002 36863 ft 499 kts 109°
2026-04-23 14:46 29.53122 37.77758 36864 ft 499 kts 109°
2026-04-23 14:47 29.51516 37.85520 36870 ft 499 kts 109°
2026-04-23 14:47 29.49900 37.93285 36873 ft 499 kts 109°
2026-04-23 14:48 29.48290 38.01031 36877 ft 499 kts 109°
2026-04-23 14:48 29.46850 38.08856 36879 ft 501 kts 107°
2026-04-23 14:49 29.45537 38.16688 36883 ft 502 kts 107°
2026-04-23 14:49 29.44189 38.24548 36884 ft 502 kts 107°
2026-04-23 14:50 29.42787 38.32368 36895 ft 502 kts 108°
2026-04-23 14:50 29.41363 38.40213 36901 ft 503 kts 108°
2026-04-23 14:51 29.39942 38.48086 36899 ft 503 kts 108°
2026-04-23 14:51 29.38527 38.55958 36909 ft 504 kts 108°
2026-04-23 14:52 29.37101 38.63825 36916 ft 504 kts 108°
2026-04-23 14:52 29.35668 38.71710 36912 ft 504 kts 108°
2026-04-23 14:53 29.34245 38.79531 36916 ft 505 kts 108°
2026-04-23 14:53 29.32798 38.87414 36933 ft 505 kts 108°
2026-04-23 14:54 29.31304 38.95269 36934 ft 504 kts 109°
2026-04-23 14:54 29.29650 39.03108 36935 ft 504 kts 110°
2026-04-23 14:55 29.27954 39.10915 36941 ft 504 kts 110°
2026-04-23 14:55 29.26306 39.18690 36946 ft 505 kts 110°
2026-04-23 14:56 29.24670 39.26512 36947 ft 505 kts 110°
2026-04-23 14:56 29.23018 39.34360 36945 ft 505 kts 110°
2026-04-23 14:57 29.21372 39.42140 36946 ft 506 kts 110°
2026-04-23 14:57 29.19699 39.49988 36950 ft 506 kts 110°
2026-04-23 14:58 29.18028 39.57819 36946 ft 506 kts 110°
2026-04-23 14:58 29.16354 39.65649 36952 ft 507 kts 110°
2026-04-23 14:59 29.14671 39.73478 36956 ft 507 kts 110°
2026-04-23 14:59 29.12988 39.81315 36959 ft 507 kts 110°
2026-04-23 15:00 29.11308 39.89113 36961 ft 507 kts 110°
2026-04-23 15:00 29.09789 39.97011 36960 ft 510 kts 106°
2026-04-23 15:01 29.08594 40.05027 36963 ft 512 kts 105°
2026-04-23 15:01 29.07445 40.13076 36960 ft 512 kts 105°
2026-04-23 15:02 29.06413 40.19745 36957 ft 511 kts 106°
2026-04-23 15:02 29.05110 40.27722 36955 ft 511 kts 106°
2026-04-23 15:03 29.03810 40.35659 36954 ft 511 kts 106°
2026-04-23 15:03 29.02527 40.43654 36955 ft 511 kts 106°
2026-04-23 15:04 29.01241 40.51666 36953 ft 511 kts 106°
2026-04-23 15:04 28.99949 40.59665 36953 ft 511 kts 106°
2026-04-23 15:05 28.98646 40.67661 36953 ft 511 kts 106°
2026-04-23 15:05 28.97339 40.75640 36952 ft 511 kts 106°
2026-04-23 15:06 28.96030 40.83587 36952 ft 511 kts 106°
2026-04-23 15:06 28.94716 40.91574 36952 ft 511 kts 107°
2026-04-23 15:07 28.93400 40.99570 36953 ft 511 kts 107°
2026-04-23 15:07 28.92078 41.07549 36952 ft 511 kts 107°
2026-04-23 15:08 28.90757 41.15487 36952 ft 512 kts 107°
2026-04-23 15:09 28.88748 41.27476 36961 ft 512 kts 107°
2026-04-23 15:09 28.87407 41.35457 36968 ft 511 kts 107°
2026-04-23 15:10 28.86069 41.43385 36973 ft 511 kts 107°
2026-04-23 15:10 28.84726 41.51344 36971 ft 511 kts 107°
2026-04-23 15:11 28.83366 41.59325 36969 ft 511 kts 107°
2026-04-23 15:11 28.82014 41.67225 36971 ft 511 kts 107°
2026-04-23 15:12 28.80654 41.75183 36974 ft 511 kts 107°
2026-04-23 15:12 28.79283 41.83140 36986 ft 511 kts 107°
2026-04-23 15:13 28.77914 41.91080 36981 ft 510 kts 107°
2026-04-23 15:13 28.76542 41.99034 36982 ft 510 kts 107°
2026-04-23 15:14 28.75162 42.06967 36980 ft 510 kts 107°
2026-04-23 15:14 28.73785 42.14847 36982 ft 510 kts 107°
2026-04-23 15:15 28.72397 42.22783 36982 ft 510 kts 107°
2026-04-23 15:15 28.71004 42.30703 36981 ft 509 kts 107°
2026-04-23 15:16 28.69607 42.38625 36976 ft 509 kts 108°
2026-04-23 15:16 28.68215 42.46482 36969 ft 510 kts 108°
2026-04-23 15:17 28.66809 42.54399 36965 ft 510 kts 108°
2026-04-23 15:17 28.65386 42.62327 36963 ft 509 kts 108°
2026-04-23 15:18 28.63954 42.70237 36962 ft 509 kts 108°
2026-04-23 15:18 28.62397 42.78088 36961 ft 508 kts 110°
2026-04-23 15:19 28.60764 42.85853 36960 ft 507 kts 110°
2026-04-23 15:19 28.59129 42.93667 36961 ft 508 kts 110°
2026-04-23 15:20 28.57524 43.01517 36961 ft 508 kts 109°
2026-04-23 15:20 28.55926 43.09367 36965 ft 508 kts 109°
2026-04-23 15:21 28.54318 43.17176 36964 ft 507 kts 110°
2026-04-23 15:21 28.52708 43.24939 36964 ft 507 kts 110°
2026-04-23 15:22 28.51081 43.32759 36964 ft 507 kts 110°
2026-04-23 15:22 28.49454 43.40577 36976 ft 507 kts 110°
2026-04-23 15:23 28.47830 43.48382 36974 ft 506 kts 110°
2026-04-23 15:23 28.46208 43.56122 36970 ft 505 kts 110°
2026-04-23 15:24 28.44573 43.63889 36974 ft 505 kts 110°
2026-04-23 15:24 28.42933 43.71666 36973 ft 504 kts 110°
2026-04-23 15:25 28.41306 43.79354 36971 ft 503 kts 110°
2026-04-23 15:25 28.39665 43.87095 36972 ft 503 kts 110°
2026-04-23 15:26 28.38041 43.94828 36971 ft 503 kts 110°
2026-04-23 15:26 28.36439 44.02564 36972 ft 502 kts 110°
2026-04-23 15:27 28.34835 44.10275 36972 ft 502 kts 110°
2026-04-23 15:27 28.33226 44.17998 36975 ft 501 kts 110°
2026-04-23 15:28 28.31616 44.25645 36974 ft 501 kts 110°
2026-04-23 15:28 28.29984 44.33343 36973 ft 501 kts 110°
2026-04-23 15:29 28.28356 44.41044 36976 ft 502 kts 110°
2026-04-23 15:29 28.26721 44.48759 36975 ft 502 kts 110°
2026-04-23 15:30 28.25088 44.56457 36976 ft 502 kts 110°
2026-04-23 15:30 28.23446 44.64168 36977 ft 502 kts 110°
2026-04-23 15:31 28.21800 44.71814 36974 ft 503 kts 110°
2026-04-23 15:31 28.20134 44.79520 36976 ft 503 kts 110°
2026-04-23 15:32 28.18481 44.87230 36978 ft 503 kts 110°
2026-04-23 15:32 28.16819 44.94953 36982 ft 504 kts 110°
2026-04-23 15:33 28.15145 45.02660 36985 ft 503 kts 111°
2026-04-23 15:33 28.12602 45.09837 36982 ft 484 kts 129°
2026-04-23 15:34 28.09129 45.16336 36982 ft 482 kts 130°
2026-04-23 15:34 28.05644 45.22832 36982 ft 482 kts 130°
2026-04-23 15:35 28.02157 45.29335 36987 ft 482 kts 130°
2026-04-23 15:35 27.98676 45.35831 36996 ft 483 kts 130°
2026-04-23 15:36 27.95214 45.42288 37007 ft 482 kts 130°
2026-04-23 15:36 27.91714 45.48774 37005 ft 481 kts 130°
2026-04-23 15:37 27.88422 45.55397 36996 ft 491 kts 120°
2026-04-23 15:37 27.87328 45.59091 36990 ft 501 kts 109°
2026-04-23 15:37 27.86816 45.61630 36987 ft 502 kts 109°
2026-04-23 15:38 27.84986 45.70634 36986 ft 503 kts 109°
2026-04-23 15:38 27.83380 45.78329 36987 ft 503 kts 109°
2026-04-23 15:39 27.81793 45.85982 36987 ft 504 kts 109°
2026-04-23 15:39 27.80196 45.93701 36988 ft 504 kts 109°
2026-04-23 15:40 27.78597 46.01408 36989 ft 504 kts 109°
2026-04-23 15:40 27.76991 46.09119 36991 ft 504 kts 109°
2026-04-23 15:41 27.75383 46.16850 36990 ft 504 kts 110°
2026-04-23 15:41 27.73770 46.24544 36994 ft 504 kts 109°
2026-04-23 15:42 27.72168 46.32212 36995 ft 504 kts 109°
2026-04-23 15:42 27.70565 46.39920 36993 ft 504 kts 109°
2026-04-23 15:43 27.68947 46.47625 36991 ft 504 kts 109°
2026-04-23 15:43 27.67597 46.54020 36992 ft 504 kts 109°
2026-04-23 15:44 27.65968 46.61748 36994 ft 504 kts 109°
2026-04-23 15:44 27.64347 46.69450 36991 ft 504 kts 109°
2026-04-23 15:45 27.62724 46.77115 36985 ft 504 kts 109°
2026-04-23 15:45 27.61087 46.84800 36983 ft 505 kts 109°
2026-04-23 15:46 27.59440 46.92508 36981 ft 505 kts 109°
2026-04-23 15:46 27.57788 47.00220 36974 ft 506 kts 109°
2026-04-23 15:47 27.56135 47.07946 36972 ft 506 kts 109°
2026-04-23 15:47 27.54496 47.15562 36966 ft 506 kts 109°
2026-04-23 15:48 27.52812 47.23339 36963 ft 506 kts 109°
2026-04-23 15:48 27.51143 47.31062 36965 ft 507 kts 109°
2026-04-23 15:49 27.49483 47.38745 36963 ft 507 kts 109°
2026-04-23 15:49 27.47799 47.46481 36959 ft 508 kts 109°
2026-04-23 15:50 27.46106 47.54227 36958 ft 509 kts 109°
2026-04-23 15:50 27.44414 47.61939 36958 ft 509 kts 110°
2026-04-23 15:51 27.42448 47.69579 36951 ft 507 kts 114°
2026-04-23 15:51 27.40206 47.77108 36949 ft 507 kts 115°
2026-04-23 15:52 27.37969 47.84605 36948 ft 508 kts 114°
2026-04-23 15:52 27.35792 47.92206 36953 ft 510 kts 113°
2026-04-23 15:53 27.33643 47.99842 36949 ft 511 kts 113°
2026-04-23 15:53 27.31488 48.07406 36943 ft 511 kts 113°
2026-04-23 15:54 27.29358 48.15057 36940 ft 513 kts 112°
2026-04-23 15:54 27.27340 48.22774 36941 ft 514 kts 111°
2026-04-23 15:55 27.25347 48.30491 36943 ft 514 kts 111°
2026-04-23 15:55 27.23304 48.38213 36947 ft 514 kts 111°
2026-04-23 15:56 27.21254 48.45856 36946 ft 514 kts 111°
2026-04-23 15:56 27.19183 48.53576 36944 ft 514 kts 111°
2026-04-23 15:57 27.17127 48.61232 36945 ft 514 kts 111°
2026-04-23 15:57 27.15057 48.68927 36945 ft 514 kts 111°
2026-04-23 15:58 27.12990 48.76623 36944 ft 514 kts 111°
2026-04-23 15:58 27.10919 48.84311 36942 ft 514 kts 111°
2026-04-23 15:59 27.09629 48.92219 36936 ft 520 kts 94°
2026-04-23 15:59 27.09289 49.00290 36930 ft 521 kts 94°
2026-04-23 16:00 27.08930 49.08416 36929 ft 520 kts 94°
2026-04-23 16:00 27.08539 49.16527 36936 ft 520 kts 94°
2026-04-23 16:01 27.08152 49.24586 36935 ft 520 kts 94°
2026-04-23 16:01 27.07768 49.32679 36934 ft 520 kts 94°
2026-04-23 16:02 27.07368 49.40785 36932 ft 519 kts 95°
2026-04-23 16:02 27.06971 49.48884 36929 ft 519 kts 94°
2026-04-23 16:03 27.06579 49.56984 36928 ft 519 kts 94°
2026-04-23 16:03 27.06180 49.65074 36929 ft 520 kts 94°
2026-04-23 16:04 27.05771 49.73141 36931 ft 520 kts 94°
2026-04-23 16:04 27.05359 49.81282 36932 ft 520 kts 94°
2026-04-23 16:05 27.05012 49.88036 36930 ft 520 kts 95°
2026-04-23 16:05 27.04521 49.97449 36918 ft 520 kts 94°
2026-04-23 16:06 27.04418 50.05573 36931 ft 520 kts 89°
2026-04-23 16:06 27.04622 50.13648 36929 ft 519 kts 88°
2026-04-23 16:07 27.04804 50.21755 36929 ft 519 kts 89°
2026-04-23 16:07 27.04871 50.29856 36934 ft 519 kts 90°
2026-04-23 16:08 27.04236 50.37901 36934 ft 516 kts 106°
2026-04-23 16:08 27.01892 50.45392 36934 ft 510 kts 117°
2026-04-23 16:09 26.99114 50.52740 36928 ft 510 kts 117°
2026-04-23 16:09 26.96340 50.60074 36929 ft 511 kts 117°
2026-04-23 16:10 26.93574 50.67352 36936 ft 511 kts 117°
2026-04-23 16:10 26.90776 50.74667 36944 ft 510 kts 117°
2026-04-23 16:11 26.87970 50.81990 36946 ft 511 kts 117°
2026-04-23 16:11 26.85170 50.89323 36949 ft 510 kts 117°
2026-04-23 16:12 26.82367 50.96621 36950 ft 510 kts 117°
2026-04-23 16:12 26.79589 51.03886 36949 ft 510 kts 117°
2026-04-23 16:13 26.76839 51.11204 36947 ft 510 kts 115°
2026-04-23 16:13 26.73243 51.22450 36949 ft 512 kts 111°
2026-04-23 16:14 26.70944 51.29993 36951 ft 511 kts 112°
2026-04-23 16:14 26.68570 51.37439 36950 ft 511 kts 113°
2026-04-23 16:15 26.66128 51.44881 36949 ft 510 kts 113°
2026-04-23 16:15 26.63696 51.52364 36950 ft 510 kts 112°
2026-04-23 16:16 26.61317 51.59801 36953 ft 510 kts 112°
2026-04-23 16:16 26.58924 51.67267 36960 ft 510 kts 112°
2026-04-23 16:17 26.56522 51.74717 36963 ft 509 kts 112°
2026-04-23 16:17 26.54109 51.82155 36960 ft 509 kts 112°
2026-04-23 16:18 26.51688 51.89596 36962 ft 509 kts 112°
2026-04-23 16:18 26.49250 51.96960 36958 ft 508 kts 113°
2026-04-23 16:19 26.46773 52.04342 36957 ft 509 kts 113°
2026-04-23 16:19 26.44291 52.11742 36953 ft 505 kts 113°
2026-04-23 16:20 26.41815 52.19159 36943 ft 515 kts 113°
2026-04-23 16:20 26.39277 52.26751 36944 ft 527 kts 113°
2026-04-23 16:21 26.36705 52.34433 36943 ft 535 kts 113°
2026-04-23 16:21 26.34033 52.42198 36982 ft 536 kts 115°
2026-04-23 16:22 26.31102 52.49835 36980 ft 535 kts 117°
2026-04-23 16:22 26.28076 52.57423 36978 ft 535 kts 117°
2026-04-23 16:23 26.25101 52.65035 36980 ft 535 kts 116°
2026-04-23 16:23 26.22181 52.72670 36987 ft 536 kts 116°
2026-04-23 16:24 26.19285 52.80315 36990 ft 535 kts 115°
2026-04-23 16:24 26.16411 52.87873 36629 ft 519 kts 116°
2026-04-23 16:25 26.15029 52.91487 36331 ft 499 kts 116°
2026-04-23 16:25 26.14127 52.93832 35921 ft 492 kts 116°
2026-04-23 16:25 26.12346 52.98431 34993 ft 482 kts 116°
2026-04-23 16:25 26.11026 53.01827 34300 ft 474 kts 116°
2026-04-23 16:26 26.09735 53.05167 33589 ft 467 kts 115°
2026-04-23 16:26 26.09007 53.07421 33047 ft 465 kts 105°
2026-04-23 16:26 26.08289 53.10930 32118 ft 463 kts 103°
2026-04-23 16:26 26.07604 53.14411 31268 ft 459 kts 102°
2026-04-23 16:27 26.06925 53.17865 30500 ft 453 kts 102°
2026-04-23 16:27 26.06258 53.21271 29734 ft 447 kts 102°
2026-04-23 16:27 26.05596 53.24641 28973 ft 441 kts 102°
2026-04-23 16:27 26.04944 53.27939 28205 ft 435 kts 103°
2026-04-23 16:28 26.04297 53.31206 27437 ft 429 kts 103°
2026-04-23 16:28 26.03664 53.34396 26669 ft 424 kts 103°
2026-04-23 16:28 26.03035 53.37582 25921 ft 418 kts 103°
2026-04-23 16:28 26.02417 53.40716 25166 ft 413 kts 104°
2026-04-23 16:29 26.01802 53.43818 24411 ft 407 kts 104°
2026-04-23 16:29 26.01194 53.46881 23666 ft 402 kts 104°
2026-04-23 16:29 26.00595 53.49900 22930 ft 397 kts 104°
2026-04-23 16:29 25.99999 53.52890 21969 ft 398 kts 104°
2026-04-23 16:30 25.99389 53.55934 20639 ft 409 kts 104°
2026-04-23 16:30 25.98763 53.59050 19888 ft 414 kts 104°
2026-04-23 16:30 25.98136 53.62180 19387 ft 411 kts 104°
2026-04-23 16:30 25.97526 53.65231 18924 ft 408 kts 104°
2026-04-23 16:31 25.96912 53.68300 18429 ft 406 kts 104°
2026-04-23 16:31 25.96301 53.71346 17958 ft 403 kts 104°
2026-04-23 16:31 25.95691 53.74380 17490 ft 399 kts 104°
2026-04-23 16:31 25.95088 53.77379 17049 ft 396 kts 104°
2026-04-23 16:32 25.94488 53.80366 16601 ft 393 kts 104°
2026-04-23 16:32 25.93896 53.83310 16166 ft 390 kts 104°
2026-04-23 16:32 25.93307 53.86241 15729 ft 386 kts 105°
2026-04-23 16:32 25.92722 53.89141 15287 ft 383 kts 105°
2026-04-23 16:33 25.92139 53.92020 14980 ft 381 kts 105°
2026-04-23 16:33 25.91560 53.94861 14941 ft 381 kts 105°
2026-04-23 16:33 25.90977 53.97736 14943 ft 381 kts 105°
2026-04-23 16:33 25.90395 54.00615 14943 ft 381 kts 105°
2026-04-23 16:34 25.89810 54.03500 14944 ft 381 kts 105°
2026-04-23 16:34 25.89225 54.06375 14938 ft 383 kts 105°
2026-04-23 16:34 25.88643 54.09243 14646 ft 379 kts 105°
2026-04-23 16:34 25.88066 54.12087 14202 ft 376 kts 105°
2026-04-23 16:35 25.87493 54.14915 13781 ft 373 kts 105°
2026-04-23 16:35 25.86925 54.17716 13352 ft 370 kts 105°
2026-04-23 16:35 25.86360 54.20495 13076 ft 368 kts 105°
2026-04-23 16:35 25.85798 54.23237 13066 ft 367 kts 106°
2026-04-23 16:36 25.85230 54.25998 13067 ft 368 kts 106°
2026-04-23 16:36 25.84656 54.28783 13067 ft 368 kts 105°
2026-04-23 16:36 25.84085 54.31553 13065 ft 367 kts 106°
2026-04-23 16:36 25.83518 54.34311 13060 ft 367 kts 105°
2026-04-23 16:37 25.82955 54.37068 13055 ft 367 kts 105°
2026-04-23 16:37 25.82393 54.39816 13058 ft 367 kts 106°
2026-04-23 16:37 25.81823 54.42579 13037 ft 366 kts 105°
2026-04-23 16:37 25.81248 54.45340 13020 ft 367 kts 106°
2026-04-23 16:38 25.80673 54.48106 13023 ft 367 kts 105°
2026-04-23 16:38 25.80105 54.50868 13012 ft 366 kts 106°
2026-04-23 16:38 25.79537 54.53613 13007 ft 365 kts 106°
2026-04-23 16:38 25.78966 54.56348 13009 ft 368 kts 105°
2026-04-23 16:39 25.78393 54.59107 13007 ft 365 kts 105°
2026-04-23 16:39 25.77828 54.61841 13013 ft 365 kts 105°
2026-04-23 16:39 25.77257 54.64601 13011 ft 365 kts 105°
2026-04-23 16:39 25.76689 54.67344 13002 ft 365 kts 105°
2026-04-23 16:40 25.76118 54.70097 13001 ft 364 kts 105°
2026-04-23 16:40 25.75549 54.72835 12997 ft 364 kts 105°
2026-04-23 16:40 25.74987 54.75544 12485 ft 357 kts 105°
2026-04-23 16:40 25.74434 54.78218 11638 ft 352 kts 105°
2026-04-23 16:41 25.73892 54.80838 10804 ft 346 kts 105°
2026-04-23 16:41 25.73352 54.83429 9970 ft 342 kts 105°
2026-04-23 16:41 25.72824 54.85943 9280 ft 336 kts 104°
2026-04-23 16:41 25.72297 54.88482 9059 ft 337 kts 103°
2026-04-23 16:42 25.71759 54.91010 8984 ft 337 kts 104°
2026-04-23 16:42 25.71219 54.93544 8996 ft 339 kts 104°
2026-04-23 16:42 25.70507 54.96026 8992 ft 336 kts 110°
2026-04-23 16:42 25.69725 54.98483 8985 ft 338 kts 110°
2026-04-23 16:43 25.68940 55.00935 8991 ft 337 kts 110°
2026-04-23 16:43 25.68093 55.03354 8988 ft 336 kts 118°
2026-04-23 16:43 25.66953 55.05603 8675 ft 332 kts 120°
2026-04-23 16:43 25.65820 55.07786 8501 ft 320 kts 120°
2026-04-23 16:44 25.64742 55.09859 8373 ft 307 kts 120°
2026-04-23 16:44 25.63694 55.11870 8248 ft 295 kts 121°
2026-04-23 16:44 25.62689 55.13804 8122 ft 283 kts 120°
2026-04-23 16:44 25.61721 55.15663 7998 ft 275 kts 120°
2026-04-23 16:45 25.60771 55.17491 7987 ft 273 kts 120°
2026-04-23 16:45 25.59821 55.19318 7994 ft 274 kts 120°
2026-04-23 16:45 25.58874 55.21141 7991 ft 274 kts 120°
2026-04-23 16:45 25.57922 55.22970 7991 ft 274 kts 120°
2026-04-23 16:46 25.56970 55.24801 7989 ft 274 kts 120°
2026-04-23 16:46 25.56020 55.26629 7985 ft 274 kts 120°
2026-04-23 16:46 25.55081 55.28437 7990 ft 274 kts 120°
2026-04-23 16:46 25.54136 55.30270 7989 ft 274 kts 120°
2026-04-23 16:47 25.53194 55.32100 7993 ft 274 kts 120°
2026-04-23 16:47 25.52243 55.33933 7992 ft 274 kts 121°
2026-04-23 16:47 25.51291 55.35757 7992 ft 274 kts 121°
2026-04-23 16:47 25.50332 55.37585 8000 ft 274 kts 121°
2026-04-23 16:48 25.49370 55.39414 8004 ft 274 kts 121°
2026-04-23 16:48 25.48411 55.41241 8003 ft 275 kts 121°
2026-04-23 16:48 25.47439 55.43066 8001 ft 274 kts 121°
2026-04-23 16:48 25.46440 55.44875 8006 ft 276 kts 122°
2026-04-23 16:49 25.45776 55.46073 7997 ft 275 kts 122°
2026-04-23 16:49 25.44456 55.48465 7998 ft 273 kts 122°
2026-04-23 16:49 25.43426 55.50241 8004 ft 274 kts 124°
2026-04-23 16:49 25.42369 55.52019 8006 ft 274 kts 124°
2026-04-23 16:50 25.41342 55.53747 8006 ft 273 kts 124°
2026-04-23 16:50 25.40295 55.55506 8007 ft 274 kts 124°
2026-04-23 16:50 25.39253 55.57253 8007 ft 261 kts 124°
2026-04-23 16:50 25.38294 55.58870 8007 ft 248 kts 124°
2026-04-23 16:51 25.37366 55.60470 8010 ft 246 kts 122°
2026-04-23 16:51 25.36469 55.62078 8010 ft 245 kts 122°
2026-04-23 16:51 25.35582 55.63688 8010 ft 245 kts 122°
2026-04-23 16:51 25.34677 55.65328 7477 ft 257 kts 122°
2026-04-23 16:52 25.33718 55.67065 6775 ft 266 kts 122°
2026-04-23 16:52 25.32765 55.68793 6425 ft 256 kts 121°
2026-04-23 16:52 25.31869 55.70414 6280 ft 239 kts 121°
2026-04-23 16:52 25.31025 55.71937 6159 ft 224 kts 121°
2026-04-23 16:53 25.30240 55.73354 6065 ft 216 kts 121°
2026-04-23 16:53 25.29455 55.74768 5972 ft 215 kts 121°
2026-04-23 16:53 25.28671 55.76176 5882 ft 215 kts 122°
2026-04-23 16:53 25.27868 55.77572 5769 ft 214 kts 123°
2026-04-23 16:54 25.27056 55.78957 5668 ft 214 kts 123°
2026-04-23 16:54 25.26253 55.80324 5515 ft 208 kts 122°
2026-04-23 16:54 25.25506 55.81595 5390 ft 192 kts 123°
2026-04-23 16:54 25.24804 55.82791 5264 ft 181 kts 123°
2026-04-23 16:55 25.24129 55.83933 5148 ft 172 kts 123°
2026-04-23 16:55 25.23465 55.84992 5061 ft 167 kts 134°
2026-04-23 16:55 25.22497 55.85613 4975 ft 157 kts 169°
2026-04-23 16:55 25.21436 55.85523 4927 ft 154 kts 205°
2026-04-23 16:56 25.20614 55.84805 4889 ft 151 kts 238°
2026-04-23 16:56 25.20233 55.83760 4873 ft 149 kts 255°
2026-04-23 16:56 25.19923 55.82652 4840 ft 149 kts 255°
2026-04-23 16:56 25.19618 55.81574 4813 ft 149 kts 255°
2026-04-23 16:57 25.19307 55.80478 4774 ft 149 kts 254°
2026-04-23 16:57 25.18995 55.79386 4738 ft 149 kts 255°
2026-04-23 16:57 25.18685 55.78293 4704 ft 148 kts 256°
2026-04-23 16:57 25.18636 55.77171 4663 ft 147 kts 282°
2026-04-23 16:58 25.19004 55.76147 4617 ft 145 kts 304°
2026-04-23 16:58 25.19552 55.75206 4575 ft 146 kts 304°
2026-04-23 16:58 25.20099 55.74262 4437 ft 146 kts 303°
2026-04-23 16:58 25.20644 55.73323 4258 ft 145 kts 304°
2026-04-23 16:59 25.21184 55.72388 4080 ft 143 kts 304°
2026-04-23 16:59 25.21720 55.71461 3889 ft 143 kts 304°
2026-04-23 16:59 25.22257 55.70536 3714 ft 142 kts 304°
2026-04-23 16:59 25.22792 55.69612 3518 ft 142 kts 304°
2026-04-23 17:00 25.23323 55.68694 3329 ft 142 kts 304°
2026-04-23 17:00 25.23852 55.67780 3143 ft 141 kts 304°
2026-04-23 17:00 25.24379 55.66869 2948 ft 140 kts 304°
2026-04-23 17:00 25.24896 55.65975 2770 ft 139 kts 304°
2026-04-23 17:01 25.25418 55.65074 2577 ft 140 kts 304°
2026-04-23 17:01 25.25943 55.64166 2401 ft 140 kts 304°
2026-04-23 17:01 25.26465 55.63261 2213 ft 139 kts 304°
2026-04-23 17:01 25.26986 55.62359 2033 ft 139 kts 303°
2026-04-23 17:02 25.27331 55.61762 1901 ft 139 kts 303°
2026-04-23 17:02 25.28030 55.60554 1664 ft 139 kts 303°
2026-04-23 17:02 25.28549 55.59653 1465 ft 139 kts 303°
2026-04-23 17:02 25.29070 55.58752 1290 ft 139 kts 303°
2026-04-23 17:03 25.29589 55.57856 1107 ft 138 kts 302°
2026-04-23 17:03 25.30107 55.56959 929 ft 138 kts 302°
2026-04-23 17:03 25.30625 55.56061 736 ft 138 kts 303°
2026-04-23 17:03 25.31142 55.55164 564 ft 138 kts 303°
2026-04-23 17:04 25.31658 55.54270 374 ft 137 kts 303°
2026-04-23 17:04 25.32171 55.53380 221 ft 138 kts 303°
2026-04-23 17:04 25.32669 55.52515 127 ft 127 kts 304°
2026-04-23 17:04 25.33079 55.51813 115 ft 74 kts 300°
2026-04-23 17:05 25.33174 55.51612 116 ft 10 kts 287°
2026-04-23 17:05 25.33190 55.51539 116 ft 9 kts 280°
2026-04-23 17:05 25.33196 55.51469 116 ft 9 kts 271°
2026-04-23 17:05 25.33197 55.51431 116 ft 0 kts 271°